Velovelo
Português Nederlands 日本語 中文
Español English čeština slovenčina
русский italiano polski norsk
français Deutsch svenska عربي
 
 vorige Seite
 einem Freund senden
 Um zu drucken
 ---> La Côte d’Orienne 2015 : résultats du 110 km

Cl....Dos..Nom PrénomCat..Cc.Temps…...Moy.....
1 379 Jeremy PUTOT A 1 02:59:56 36,68
2 357 Florian MORIZOT B 1 03:00:05 36,65
3 330 Olivier LEROY A 2 03:00:10 36,63
4 383 Jérémie DERANGERE C 1 03:01:46 36,31
5 384 Gérard GILI B 2 03:03:09 36,04
6 331 Guillaume FLOCARD A 3 03:03:09 36,04
7 382 Alain KICMAN D 1 03:03:10 36,03
8 282 Bertrand TORTOCHAUX C 2 03:03:10 36,03
9 281 Geoffroy PRUNIER B 3 03:03:14 36,02
10 280 Loïc ETIENNE B 4 03:03:15 36,02
11 385 Remy CHEVET A 4 03:03:15 36,02
12 316 Nicolas GORRET A 5 03:03:16 36,01
13 374 Mickael COLLARDEY B 5 03:03:16 36,01
14 340 Felix LHENRY A 6 03:03:16 36,01
15 266 Stéphane MOINE PICARD C 3 03:03:16 36,01
16 291 Johan CECILE B 6 03:03:17 36,01
17 289 Alexandre LEDOUX A 7 03:03:18 36,01
18 388 Sébastien PARIS E 1 03:03:19 36,00
19 314 Valentin REMONDET A 8 03:03:22 35,99
20 265 Emeric CHAPAT B 7 03:03:26 35,98
21 311 André BLANCHONG E 2 03:03:44 35,92
22 274 Arnaud GRANDJEAN A 9 03:07:22 35,23
23 263 Alexandre MINOT B 4 03:07:36 35,18
24 368 Cédric YANN B 8 03:07:37 35,18
25 259 Didier RAMOUSSIN D 2 03:07:38 35,17
26 301 Yannick CLAIROTTE B 9 03:07:38 35,17
27 328 Sébastien JANNIN C 5 03:07:38 35,17
28 369 Raphael COLLOT B 10 03:07:48 35,14
29 358 Alexis CARVALHO A 10 03:07:49 35,14
30 319 Julien ATTARD B 11 03:08:45 34,97
31 290 Baptiste LEDOUX A 11 03:08:46 34,96
32 337 Clément LAFIANDRA A 12 03:11:32 34,46
33 278 Olivier MAGNIN C 6 03:11:34 34,45
34 387 Philippe JOANNIER C 7 03:11:35 34,45
35 273 Clément TACLET A 13 03:11:35 34,45
36 300 Frédéric DELAHAYE B 12 03:11:35 34,45
37 315 Alexis MOUTTE A 14 03:11:39 34,44
38 309 Christophe SAINT C 8 03:11:39 34,44
39 317 Anthony VERKYNDEREN C 9 03:12:46 34,24
40 354 Laurent AUVITU C 10 03:12:46 34,24
41 295 Guillaume BRESSON B 13 03:13:50 34,05
42 296 Vincent BECQUE B 14 03:14:09 33,99
43 270 Emmanuel ANDRIEU C 11 03:14:18 33,97
44 279 Patrick PLIGERSDORFFER C 12 03:14:24 33,95
45 327 Quentin CHANTERAULT A 15 03:14:24 33,95
46 342 Cédric DARUIGNY B 15 03:14:24 33,95
47 307 Maurice CORNU E 3 03:14:27 33,94
48 310 Ludovic REVERDY C 13 03:17:54 33,35
49 321 Sylvain MENONE C 14 03:17:57 33,34
50 293 Vivien REGNIER B 16 03:17:58 33,34
51 362 Lionel TREUCHOT D 4 03:17:58 33,34
52 299 Mario CICCARONE B 17 03:17:58 33,34
53 365 Delphine GARDEY W1 1 03:17:58 33,34
54 370 Lilan RICHARDET B 18 03:17:59 33,34
55 349 Antoni ARDOUIN A 16 03:18:00 33,33
56 378 Bastien FRANCESCHINI B 19 03:18:01 33,33
57 372 Gary ROYER A 17 03:18:25 33,26
58 390 Sébastien LONGERE E 3 03:21:12 32,80
59 381 Auguste CARVALHO C 15 03:21:13 32,80
60 366 Dominique PILLOT D 5 03:21:14 32,80
61 371 Florian PERRET C 16 03:21:14 32,80
62 361 Régis DUBOIS E 4 03:21:14 32,80
63 255 Alain DEDIANNE D 6 03:21:14 32,80
64 335 Maxime POISSON E 5 03:21:15 32,80
65 320 Jean PONCELET D 7 03:21:16 32,79
66 375 Vincent THIVENT B 20 03:21:18 32,79
67 350 Corentin PIERRAT A 18 03:23:37 32,41
68 389 Philippe CAILLAULT B 21 03:24:59 32,20
69 376 Benoit TIROLE C 19 03:24:59 32,20
70 313 Louis MITAINE A 20 03:25:29 32,12
71 360 Thierry GUILLHORRE D 8 03:27:40 31,78
72 343 Laurent GUIZIOU C 17 03:27:41 31,78
73 45 Berardi SEBASTIANO D 18 03:29:25 44,41
74 364 Claude VINCENT D 9 03:30:04 31,42
75 367 Matthieu BOURGEOT B 22 03:30:04 31,42
76 312 Thomas LAURYSSEN A 21 03:30:05 31,42
77 373 Pauline AIGON W1 2 03:30:05 31,42
78 345 Margot BERTHET W1 3 03:30:05 31,42
79 264 Jean Christophe NICOLA B 23 03:30:05 31,42
80 288 Virginie SOENEN W1 4 03:30:06 31,41
81 275 Hervé MADIOT D 10 03:30:07 31,41
82 353 Eric PARIS D 11 03:30:08 31,41
83 332 Roger FLOCARD D 12 03:30:10 31,40
84 347 Patrick CHIONO D 13 03:30:11 31,40
85 308 Inconnu SIMONOT C 19 03:30:12 31,40
86 324 Lionel BERRET B 24 03:30:12 31,40
87 326 Vincent CLÉMENT B 25 03:30:26 31,36
88 325 Clément NERY A 22 03:30:26 31,36
89 318 Henri BOUYSSOU C 20 03:31:48 31,16
90 352 Robert COUDER D 14 03:31:49 31,16
91 348 Arnaud PERCEVAL C 21 03:31:50 31,16
92 329 Stéphane JACOB C 22 03:31:52 31,15
93 285 Nadège BRICE W1 5 03:32:00 31,13
94 294 Dominique BERTHAUD E 6 03:32:01 31,13
95 377 Patrick MONTARON E 7 03:32:05 31,12
96 284 Hervé PRAT C 23 03:32:06 31,12
97 356 Jean Pierre FERRUCCI E 8 03:32:52 31,01
98 286 Thibau MORI C 24 03:33:10 30,96
99 261 Odette PICARD W3 1 03:33:25 30,93
100 322 Yves MICHAUD D 15 03:33:26 30,92
101 271 Philippe DUMONT D 16 03:33:38 30,89
102 351 Yves BLEYER D 17 03:35:56 30,56
103 269 Thomas COSTE B 26 03:35:56 30,56
104 363 Gilles RAMOUSSIN D 18 03:35:56 30,56
105 276 Alain RICHARDOT D 19 03:35:57 30,56
106 333 Anouk FERMONT W2 1 03:35:57 30,56
107 336 Arthur HITIER A 23 03:35:58 30,56
108 359 Eric SAUVAGEOT D 20 03:38:25 30,22
109 323 Luigi VENITUCCI D 21 03:38:46 30,17
110 277 Pascal PERRET D 22 03:38:56 30,15
111 303 Daniel TIARRI C 25 03:39:03 30,13
112 302 Marine VERDIER W1 6 03:39:03 30,13
113 297 Pascal LIMBARDET D 23 03:42:20 29,69
114 298 Thierry LIMBARDET D 24 03:42:20 29,69
115 380 Jean Pierre DAVID E 9 03:42:20 29,69
116 305 Jean Michel GRILLOT D 25 03:44:13 29,44
117 306 Nicolas GRILLOT A 24 03:44:13 29,44
118 254 Daniel RAUX D 26 03:47:29 29,01
119 346 Lionel VIARD E 10 03:47:30 29,01
120 338 Corentin PICAUD A 25 03:48:44 28,85
121 292 Martial DELAVENNE C 26 03:51:58 28,45
122 267 Eric BOUCHART C 27 03:51:58 28,45
123 272 Geneviève BARNET W2 2 03:54:42 28,12
124 262 Thierry DOUBRE C 28 03:56:04 27,96
125 256 Mickaël DEDIANNE A 26 03:56:04 27,96
126 251 Alain MATRAT E 11 03:56:45 27,88
127 250 Gérard PITTET E 12 03:56:46 27,88
128 258 Ludmilia CORDIER W1 7 03:56:47 27,87
129 344 Luc MORETTO D 27 04:00:00 27,50
130 334 David BRENOT C 29 04:03:03 27,15
131 253 Frédéric NOEL C 30 04:05:56 26,84
132 252 Olivier PERRIER C 31 04:05:58 26,83
133 391 Stéphane BAUDOIN C 32 04:09:22 26,47
134 268 Julien MEDINA A 27 04:09:22 26,47
135 386 Stéphane PLIGERSDORFFER B 27 04:09:25 26,46
136 257 Stéphane PROCHWIEZ C 33 04:33:16 24,15
137 355 Patrick JARLAUD E 13 04:33:20 24,15

Haut 









Haut  
 Redaktion   Copyright Lesen: Hier klicken Um zu lesen !